#timestamp,LO_Frequency,Hit,StdDev 
1512572415.2,286047000.5,N
1512572435.0,286047002.7,N
1512572435.9,286047002.7,N
1512572455.8,286047002.1,N
1512572475.6,286046998.3,N
1512572495.4,286046996.4,N
1512572515.3,286046992.7,N
1512572535.1,286046992.9,N
1512572536.0,286046992.9,N
1512572555.8,286046993.9,N
1512572575.7,286046995.8,N
1512572595.5,286046995.9,N
1512572615.3,286046994.0,N
1512572635.2,286046991.8,N
1512572655.9,286046996.0,N
1512572675.7,286046998.0,N
1512572695.5,286046996.8,N
1512572715.4,286046995.0,N
1512572735.2,286046994.9,N
1512572755.0,286046999.0,N
1512572755.9,286046999.0,N
1512572775.8,286047000.8,N
1512572795.6,286047001.7,N
1512572815.4,286047005.6,N
1512572835.3,286047004.5,N
1512572855.1,286047009.1,N
1512572875.8,286047006.5,N
1512572895.7,286047002.9,N
1512572915.5,286047004.0,N
1512572935.3,286046999.7,N
1512572955.2,286047001.3,N
1512572975.9,286047002.5,N
1512572995.7,286047003.9,N
1512573015.5,286047001.9,N
1512573035.4,286047001.3,N
1512573055.2,286046998.5,N
1512573075.0,286046996.6,N
1512573075.9,286046996.6,N
1512573095.8,286046997.9,N
1512573115.6,286046999.1,N
1512573135.4,286047001.8,N
1512573155.3,286047005.0,N
1512573175.1,286047005.8,N
1512573195.8,286047002.1,N
1512573215.7,286046998.3,N
1512573235.5,286046999.5,N
1512573255.3,286046998.5,N
1512573275.2,286046998.3,N
1512573295.9,286047003.7,N
1512573315.7,286046999.0,N
1512573335.6,286046998.5,N
1512573355.4,286046998.8,N
1512573375.2,286047000.3,N
1512573395.0,286047002.5,N
1512573396.0,286047002.5,N
1512573415.8,286047000.8,N
1512573435.6,286047002.1,N
1512573455.4,286046998.5,N
1512573475.3,286046999.3,N
1512573495.1,286046995.7,N
1512573515.8,286046996.7,N
1512573535.7,286046998.4,N
1512573555.5,286047002.7,N
1512573575.3,286047002.2,N
1512573595.2,286047001.1,N
1512573615.9,286047006.0,N
1512573635.7,286047008.8,Y
1512573655.6,286047008.9,P
1512573675.4,286047005.8,N
1512573695.2,286047004.9,N
1512573715.1,286047008.6,N
1512573716.0,286047008.6,N
1512573735.8,286047010.4,Y
1512573755.6,286047001.9,P
1512573775.5,286047000.0,N
1512573795.3,286047003.0,N
1512573815.1,286047003.1,N
1512573835.9,286047003.2,N
1512573855.7,286047000.9,N
1512573875.5,286047000.1,N
1512573895.4,286046999.8,N
1512573915.2,286047001.5,N
1512573935.0,286046998.3,N
1512573935.9,286046998.3,N
1512573955.7,286046997.7,N
1512573975.6,286046997.1,N
1512573995.4,286047004.4,N
1512574015.2,286047012.0,Y
1512574035.1,286047010.4,P
1512574036.0,286047010.4,N
1512574055.8,286047004.9,N
1512574075.6,286047003.7,N
1512574095.5,286047000.7,N
1512574115.3,286046999.3,N
1512574135.1,286046998.9,N
1512574155.9,286046999.1,N
1512574175.7,286046995.1,N
1512574195.5,286046997.1,N
1512574215.4,286046995.2,N
1512574235.2,286046991.7,N
1512574255.0,286046990.6,N
1512574255.9,286046990.6,N
1512574275.8,286046989.5,N
1512574295.6,286046987.3,N
1512574315.4,286046991.6,N
1512574335.3,286046988.7,N
1512574355.1,286046983.8,N
1512574356.0,286046983.8,N
1512574375.8,286046983.0,N
1512574395.6,286046982.5,N
1512574415.5,286046982.7,N
1512574435.3,286046983.4,N
1512574455.1,286046980.7,N
1512574475.9,286046985.1,N
1512574495.7,286046982.8,N
1512574515.5,286046982.8,N
1512574535.4,286046982.5,N
1512574555.2,286046979.5,N
1512574575.0,286046977.8,N
1512574575.9,286046977.8,N
1512574595.8,286046974.1,Y
1512574615.6,286046984.4,P
1512574635.4,286046985.5,P
1512574655.3,286046985.4,P
1512574675.1,286046980.6,Y
1512574695.8,286046996.1,P
1512574715.7,286046997.3,N
1512574735.5,286046996.5,N
1512574755.3,286046998.5,N
1512574775.2,286046997.1,N
1512574795.9,286046994.0,N
1512574815.7,286046994.3,N
1512574835.6,286046997.9,N
1512574855.4,286046996.2,N
1512574875.2,286046995.9,N
1512574895.0,286046997.6,N
1512574895.9,286046997.6,N
1512574915.8,286046995.3,N
1512574935.6,286046993.7,N
1512574955.4,286046993.4,N
1512574975.3,286046996.8,N
1512574995.1,286046998.9,N
1512575015.8,286046999.4,N
1512575035.7,286046998.8,N
1512575055.5,286046997.2,N
1512575075.3,286046996.1,N
1512575095.2,286046995.9,N
1512575115.9,286046994.1,N
1512575135.7,286046995.2,N
1512575155.6,286046993.3,N
1512575175.4,286046994.9,N
1512575195.2,286046997.8,N
1512575215.0,286046997.4,N
1512575215.9,286046997.4,N
1512575235.8,286046997.2,N
1512575255.6,286046997.2,N
1512575275.4,286046995.1,N
1512575295.3,286047000.2,N
1512575315.1,286047002.7,N
1512575335.8,286047001.7,N
1512575355.7,286047004.2,N
1512575375.5,286047001.2,N
1512575395.3,286046997.6,N
1512575415.2,286046994.9,N
1512575435.9,286046997.1,N
1512575455.7,286046995.5,N
1512575475.6,286046998.0,N
1512575495.4,286046997.5,N
1512575515.2,286046999.5,N
1512575535.0,286046998.3,N
1512575536.0,286046998.3,N
1512575555.8,286046999.9,N
1512575575.6,286047002.5,N
1512575595.4,286047002.3,N
1512575615.3,286046998.7,N
1512575635.1,286046998.3,N
1512575655.8,286047000.7,N
1512575675.7,286046999.7,N
1512575695.5,286047002.0,N
1512575715.3,286047001.4,N
1512575735.2,286047002.6,N
1512575755.9,286047000.5,N
1512575775.7,286047002.1,N
1512575795.6,286047000.0,N
1512575815.4,286047002.7,N
1512575835.2,286047001.9,N
1512575855.0,286047004.1,N
1512575856.0,286047004.1,N
1512575875.8,286047002.9,N
1512575895.6,286047004.5,N
1512575915.4,286047005.7,N
1512575935.3,286047005.4,N
1512575955.1,286047005.0,N
1512575975.8,286047005.8,N
1512575995.7,286047005.8,N
